Flag for United Kingdom Weather past 2 weeks in Belfast, Northern Ireland, United Kingdom

Now
46 °F

Passing clouds.


Feels Like: 44 °F
Forecast: 44 / 53 °F
Wind: 6 mph from West

Location: Belfast / Harbour

Current Time: May 30, 2015 at 8:29:25 AM

Latest Report: May 30, 2015 at 7:50 AM


Visibility: N/A

Pressure: 29.89 "Hg

Humidity: 76%

Dew point: 39 °F

Location of BelfastLocation

Historic Weather in Belfast — Graph

°F

Belfast temperature yesterday

Maximum temperature yesterday: 55 °F (at 3:50 PM)
Minimum temperature yesterday: 43 °F (at 6:20 AM)
Average temperature yesterday: 49 °F

Past Weeks' High & Low Weather Summary

 TemperatureHumidityPressure
High66 °F (May 23, 2:50 PM)94% (May 27, 6:20 PM)30.36 "Hg (May 27, 6:20 PM)
Low43 °F (May 18, 5:20 PM)35% (May 16, 5:50 PM)29.42 "Hg (May 18, 6:20 PM)
Average52 °F65%30.01 "Hg
* Reported May 15 7:20 AM — May 30 7:20 AM, Belfast, Weather by CustomWeather, © 2015

Note: Actual official high and low records may vary slightly from our data, if they occured in-between our weather recording intervals... More about our weather records

Advertising

Belfast weather history for previous 24 hours

 ConditionsComfort  
Time TempWeatherWind HumidityBarometerVisibility
7:20 AM
Sat, May 30
45 °FPassing clouds.7 mph81%29.86 "HgN/A
6:50 AM45 °FPassing clouds.6 mph76%29.86 "HgN/A
6:20 AM43 °FPassing clouds.7 mph81%29.86 "HgN/A
10:20 PM
Fri, May 29
46 °FScattered showers. Passing clouds.6 mph66%29.80 "HgN/A
9:20 PM46 °FScattered showers. Passing clouds.6 mph71%29.80 "HgN/A
8:50 PM48 °FScattered showers. Scattered clouds.13 mph66%29.77 "HgN/A
8:20 PM48 °FScattered showers. Scattered clouds.8 mph66%29.77 "HgN/A
7:50 PM50 °FScattered showers. Scattered clouds.8 mph62%29.77 "HgN/A
7:20 PM50 °FScattered showers. Scattered clouds.13 mph58%29.74 "HgN/A
6:50 PM50 °FScattered showers. Scattered clouds.12 mph62%29.74 "HgN/A
6:20 PM52 °FScattered showers. Scattered clouds.12 mph54%29.74 "HgN/A
5:50 PM50 °FSprinkles. Scattered clouds.10 mph62%29.74 "HgN/A
5:20 PM52 °FPassing clouds.14 mph58%29.71 "HgN/A
4:50 PM52 °FScattered showers. Scattered clouds.15 mph58%29.71 "HgN/A
4:20 PM54 °FScattered showers. Scattered clouds.16 mph47%29.71 "HgN/A
3:50 PM55 °FScattered showers. Scattered clouds.14 mph47%29.71 "HgN/A
3:20 PM54 °FScattered showers. Scattered clouds.16 mph47%29.68 "HgN/A
2:50 PM54 °FScattered showers. Scattered clouds.10 mph54%29.68 "HgN/A
2:20 PM50 °FScattered showers. Scattered clouds.10 mph67%29.71 "HgN/A
1:50 PM52 °FScattered showers. Partly sunny.10 mph62%29.71 "HgN/A
1:20 PM52 °FSprinkles. Partly sunny.9 mph67%29.68 "HgN/A
12:50 PM48 °FScattered showers. Scattered clouds.9 mph76%29.71 "HgN/A
12:20 PM46 °FScattered showers. Scattered clouds.8 mph76%29.68 "HgN/A
11:50 AM52 °FSprinkles. Scattered clouds.13 mph58%29.68 "HgN/A
11:20 AM48 °FSprinkles. Scattered clouds.14 mph71%29.68 "HgN/A
10:50 AM50 °FSprinkles. Scattered clouds.14 mph58%29.68 "HgN/A
10:20 AM50 °FScattered clouds.12 mph62%29.68 "HgN/A
9:50 AM50 °FScattered clouds.13 mph58%29.68 "HgN/A
9:20 AM48 °FScattered clouds.9 mph66%29.68 "HgN/A
8:50 AM46 °FScattered clouds.8 mph66%29.68 "HgN/A
8:20 AM46 °FScattered clouds.9 mph71%29.68 "HgN/A
Weather by CustomWeather, © 2015

See weather overviewHow to use our weather pages